Home > Weather > Aspen > Past weeks

Flag for USA Past Weather in Aspen, Colorado, USA — Yesterday and Last 2 Weeks

Now
63 °F

Sunny.


Feels Like: 63 °F
Forecast: 54 / 77 °F
Wind: 7 mph from South

Location: Aspen-Pitkin County Airport

Current Time: Jul 30, 2016 at 9:32:08 PM

Latest Report: Jul 30, 2016 at 8:53 PM


Visibility: 10 mi

Pressure: 29.81 "Hg (22.45 "Hg at 2411m altitude)

Humidity: 47%

Dew Point: 42 °F

Location of AspenLocation

Past Weather in Aspen — Graph

°F

Aspen Temperature Yesterday

Maximum temperature yesterday: 85 °F (at 4:53 PM)
Minimum temperature yesterday: 47 °F (at 5:53 AM)
Average temperature yesterday: 68 °F

High & Low Weather Summary for the Past Weeks

 TemperatureHumidityPressure
High86 °F (Jul 17, 3:53 PM)96% (Jul 19, 5:53 AM)30.45 "Hg (Jul 19, 5:53 AM)
Low47 °F (Jul 29, 5:53 AM)8% (Jul 16, 11:53 AM)29.74 "Hg (Jul 16, 4:53 PM)
Average66 °F46%29.98 "Hg
* Reported Jul 15 7:53 PM — Jul 30 7:53 PM, Aspen, Weather by CustomWeather, © 2016

Note: Actual official high and low records may vary slightly from our data, if they occured in-between our weather recording intervals... More about our weather records

Advertising

Aspen Weather History for the Previous 24 Hours

Scroll right to see more
 ConditionsComfort  
Time TempWeatherWind HumidityBarometerVisibility
7:53 PM
Sat, Jul 30
70 °FSunny.5 mph34%29.78 "Hg10 mi
6:53 PM82 °FSunny.9 mph18%29.77 "Hg10 mi
5:53 PM83 °FSunny.7 mph17%29.78 "Hg10 mi
4:53 PM83 °FSunny.12 mph19%29.79 "Hg10 mi
3:53 PM82 °FScattered clouds.8 mph16%29.80 "Hg10 mi
2:53 PM83 °FScattered clouds.5 mph15%29.81 "Hg10 mi
1:53 PM83 °FScattered clouds.13 mph13%29.82 "Hg10 mi
12:53 PM85 °FScattered clouds.12 mph14%29.82 "Hg10 mi
11:53 AM82 °FScattered clouds.14 mph16%29.84 "Hg10 mi
10:53 AM80 °FPassing clouds.8 mph22%29.85 "Hg10 mi
9:53 AM73 °FSunny.5 mph29%29.88 "Hg10 mi
8:53 AM66 °FSunny.No wind36%29.90 "Hg10 mi
7:53 AM61 °FSunny.3 mph42%29.86 "Hg10 mi
6:53 AM51 °FClear.No wind61%29.87 "Hg10 mi
5:53 AM51 °FClear.3 mph59%29.85 "Hg10 mi
4:53 AM52 °FClear.8 mph57%29.83 "Hg10 mi
3:53 AM54 °FClear.5 mph53%29.84 "Hg10 mi
2:53 AM55 °FClear.6 mph51%29.84 "Hg10 mi
1:53 AM56 °FClear.6 mph47%29.84 "Hg10 mi
12:53 AM58 °FClear.8 mph46%29.84 "Hg10 mi
11:53 PM
Fri, Jul 29
59 °FClear.7 mph44%29.85 "Hg10 mi
10:53 PM61 °FClear.8 mph41%29.85 "Hg10 mi
9:53 PM61 °FClear.7 mph42%29.85 "Hg10 mi
Weather by CustomWeather, © 2016

See weather overviewHow to use our weather pages